| time (UTC) | temp F | wind direction | speed knots | gust knots | rain 1hr in | rain 24hr in | rain mn in | humidity % | barometer mb |
| 20260505224547 | 59 | 137 | 2.6 | 6.1 | 0.00 | 0.01 | 0.00 | 77 | 1017.1 |
| 20260505223103 | 59 | 206 | 3.5 | 7.0 | 0.00 | 0.01 | 0.00 | 79 | 1017.2 |
| 20260505221543 | 59 | 207 | 2.6 | 6.1 | 0.00 | 0.01 | 0.00 | 79 | 1017.3 |
| 20260505220048 | 59 | 227 | 2.6 | 7.8 | 0.00 | 0.01 | 0.00 | 78 | 1017.3 |
| 20260505214558 | 59 | 236 | 4.3 | 8.7 | 0.00 | 0.04 | 0.01 | 79 | 1017.3 |
| 20260505213054 | 59 | 189 | 1.7 | 7.8 | 0.00 | 0.04 | 0.01 | 78 | 1017.5 |
| 20260505211601 | 59 | 210 | 2.6 | 6.1 | 0.00 | 0.04 | 0.01 | 77 | 1017.2 |
| 20260505210051 | 59 | 195 | 0.9 | 7.0 | 0.00 | 0.04 | 0.01 | 78 | 1017.0 |
| 20260505204555 | 59 | 222 | 3.5 | 8.7 | 0.00 | 0.10 | 0.01 | 77 | 1017.0 |
| 20260505203105 | 59 | 167 | 4.3 | 8.7 | 0.00 | 0.10 | 0.01 | 77 | 1017.0 |
| 20260505201545 | 60 | 127 | 4.3 | 10.4 | 0.00 | 0.10 | 0.01 | 76 | 1017.1 |
| 20260505200049 | 59 | 224 | 3.5 | 9.6 | 0.00 | 0.10 | 0.01 | 76 | 1017.1 |
| 20260505194548 | 60 | 219 | 5.2 | 9.6 | 0.00 | 0.10 | 0.01 | 76 | 1017.1 |
| 20260505193044 | 59 | 203 | 4.3 | 7.8 | 0.00 | 0.10 | 0.01 | 76 | 1017.1 |
| 20260505191555 | 60 | 184 | 4.3 | 10.4 | 0.00 | 0.10 | 0.01 | 76 | 1017.2 |
| 20260505190042 | 60 | 187 | 6.1 | 11.3 | 0.00 | 0.10 | 0.01 | 75 | 1017.1 |
| 20260505184549 | 60 | 143 | 4.3 | 11.3 | 0.00 | 0.10 | 0.01 | 76 | 1016.8 |
| 20260505183048 | 60 | 211 | 5.2 | 13.9 | 0.00 | 0.10 | 0.01 | 75 | 1016.6 |
| 20260505181545 | 60 | 224 | 4.3 | 13.9 | 0.00 | 0.10 | 0.01 | 75 | 1016.4 |
| 20260505180048 | 59 | 196 | 4.3 | 9.6 | 0.00 | 0.10 | 0.01 | 76 | 1016.1 |
| 20260505174543 | 60 | 243 | 5.2 | 13.0 | 0.00 | 0.10 | 0.01 | 75 | 1016.1 |
| 20260505173044 | 59 | 185 | 4.3 | 7.8 | 0.00 | 0.10 | 0.01 | 75 | 1016.0 |
| 20260505171539 | 59 | 219 | 3.5 | 8.7 | 0.00 | 0.10 | 0.01 | 75 | 1015.9 |
| 20260505170045 | 59 | 201 | 2.6 | 5.2 | 0.00 | 0.10 | 0.01 | 75 | 1015.8 |
| 20260505164547 | 59 | 193 | 2.6 | 5.2 | 0.00 | 0.10 | 0.01 | 75 | 1015.7 |
| 20260505163042 | 59 | 159 | 2.6 | 5.2 | 0.00 | 0.10 | 0.01 | 75 | 1015.5 |
| 20260505161545 | 60 | 165 | 0.9 | 4.3 | 0.00 | 0.10 | 0.01 | 72 | 1015.3 |
| 20260505153051 | 62 | 213 | 2.6 | 7.0 | 0.00 | 0.10 | 0.01 | 65 | 1014.8 |
| 20260505151549 | 62 | 218 | 2.6 | 7.0 | 0.00 | 0.10 | 0.01 | 63 | 1014.7 |
| 20260505124550 | 66 | 158 | 0.0 | 10.4 | 0.00 | 0.10 | 0.01 | 58 | 1013.9 |
| 20260505123046 | 65 | 310 | 3.5 | 7.8 | 0.00 | 0.10 | 0.01 | 63 | 1014.1 |
| 20260505121548 | 65 | 1 | 4.3 | 7.8 | 0.00 | 0.10 | 0.01 | 66 | 1014.1 |
| 20260505120042 | 65 | 278 | 4.3 | 8.7 | 0.00 | 0.10 | 0.01 | 61 | 1014.1 |
| 20260505114551 | 65 | 4 | 3.5 | 9.6 | 0.00 | 0.10 | 0.01 | 61 | 1014.1 |
| 20260505113054 | 65 | 326 | 4.3 | 8.7 | 0.00 | 0.10 | 0.01 | 66 | 1014.4 |
| 20260505111548 | 64 | 359 | 3.5 | 7.0 | 0.00 | 0.10 | 0.01 | 67 | 1014.6 |
| 20260505101544 | 62 | 321 | 3.5 | 6.1 | 0.00 | 0.10 | 0.01 | 70 | 1015.2 |
| 20260505100039 | 62 | 30 | 3.5 | 6.1 | 0.00 | 0.10 | 0.01 | 71 | 1015.2 |
| 20260505094552 | 62 | 342 | 1.7 | 6.1 | 0.00 | 0.10 | 0.01 | 74 | 1015.3 |
| 20260505093051 | 61 | 315 | 2.6 | 5.2 | 0.00 | 0.10 | 0.01 | 76 | 1015.3 |
| 20260505091542 | 61 | 18 | 3.5 | 7.8 | 0.00 | 0.10 | 0.01 | 77 | 1015.3 |
| 20260505090056 | 61 | 353 | 2.6 | 6.1 | 0.00 | 0.10 | 0.01 | 78 | 1015.3 |
| 20260505084547 | 60 | 312 | 2.6 | 6.1 | 0.00 | 0.10 | 0.01 | 78 | 1015.3 |
| 20260505083101 | 59 | 328 | 3.5 | 7.0 | 0.00 | 0.10 | 0.01 | 79 | 1015.3 |
| 20260505081542 | 59 | 307 | 3.5 | 6.1 | 0.00 | 0.10 | 0.01 | 82 | 1015.3 |
| 20260505080047 | 58 | 298 | 2.6 | 6.1 | 0.00 | 0.10 | 0.01 | 83 | 1015.2 |
| 20260505074548 | 58 | 339 | 3.5 | 6.1 | 0.00 | 0.11 | 0.01 | 83 | 1015.1 |
| 20260505073044 | 58 | 297 | 1.7 | 6.1 | 0.00 | 0.11 | 0.01 | 83 | 1015.1 |
| 20260505071549 | 57 | 314 | 2.6 | 5.2 | 0.00 | 0.11 | 0.01 | 83 | 1015.0 |
| 20260505064548 | 56 | 286 | 3.5 | 5.2 | 0.00 | 0.21 | 0.01 | 85 | 1014.6 |
| 20260505063048 | 55 | 302 | 0.9 | 5.2 | 0.00 | 0.21 | 0.01 | 86 | 1014.5 |
| 20260505061610 | 55 | 300 | 2.6 | 6.1 | 0.00 | 0.21 | 0.01 | 88 | 1014.2 |
| 20260505060056 | 54 | 311 | 0.9 | 3.5 | 0.00 | 0.21 | 0.01 | 88 | 1013.9 |
| 20260505054554 | 54 | 310 | 0.0 | 4.3 | 0.00 | 0.22 | 0.01 | 89 | 1014.1 |
| 20260505053043 | 54 | 302 | 0.9 | 5.2 | 0.00 | 0.22 | 0.01 | 89 | 1014.1 |
| 20260505051550 | 54 | 302 | 1.7 | 5.2 | 0.00 | 0.22 | 0.01 | 89 | 1013.9 |
| 20260505041546 | 54 | 307 | 2.6 | 4.3 | 0.00 | 0.26 | 0.01 | 91 | 1013.4 |
| 20260505040057 | 54 | 310 | 1.7 | 3.5 | 0.00 | 0.26 | 0.01 | 92 | 1013.3 |
| 20260505034547 | 54 | 308 | 1.7 | 4.3 | 0.00 | 0.34 | 0.01 | 94 | 1013.2 |
| 20260505033054 | 54 | 301 | 1.7 | 3.5 | 0.00 | 0.34 | 0.01 | 94 | 1013.2 |
| 20260505031551 | 54 | 288 | 1.7 | 3.5 | 0.00 | 0.34 | 0.01 | 94 | 1013.1 |
| 20260505030044 | 53 | 279 | 0.0 | 1.7 | 0.00 | 0.34 | 0.01 | 94 | 1013.1 |
| 20260505024540 | 53 | 312 | 0.9 | 2.6 | 0.00 | 0.42 | 0.01 | 94 | 1013.1 |
| 20260505023041 | 54 | 297 | 0.9 | 2.6 | 0.00 | 0.42 | 0.01 | 94 | 1013.1 |
| 20260505021538 | 54 | 290 | 0.9 | 2.6 | 0.00 | 0.42 | 0.01 | 94 | 1013.1 |
| 20260505020046 | 54 | 288 | 0.0 | 3.5 | 0.00 | 0.42 | 0.01 | 94 | 1012.9 |
| 20260505014545 | 54 | 276 | 1.7 | 5.2 | 0.00 | 1.22 | 0.01 | 94 | 1013.0 |
| 20260505013050 | 54 | 316 | 0.9 | 2.6 | 0.00 | 1.22 | 0.01 | 94 | 1013.0 |
| 20260505011545 | 54 | 302 | 1.7 | 5.2 | 0.00 | 1.22 | 0.01 | 94 | 1013.3 |
| 20260505010058 | 54 | 294 | 1.7 | 4.3 | 0.00 | 1.22 | 0.01 | 93 | 1013.4 |
| 20260505004548 | 54 | 301 | 0.9 | 3.5 | 0.00 | 1.22 | 0.01 | 93 | 1013.5 |
| 20260505003048 | 54 | 306 | 1.7 | 4.3 | 0.00 | 1.22 | 0.01 | 93 | 1013.5 |
| 20260505001547 | 54 | 303 | 2.6 | 3.5 | 0.00 | 1.22 | 0.01 | 93 | 1013.6 |
| 20260505000054 | 54 | 0 | 0.9 | 2.6 | 0.00 | 1.22 | 0.01 | 93 | 1013.7 |
| 20260504234541 | 54 | 0 | 0.9 | 3.5 | 0.00 | 1.22 | 0.01 | 93 | 1013.8 |
| 20260504233048 | 53 | 285 | 0.0 | 1.7 | 0.00 | 1.22 | 0.01 | 93 | 1013.7 |
| 20260504231542 | 53 | 310 | 0.0 | 0.9 | 0.00 | 1.22 | 0.01 | 93 | 1013.7 |
| 20260504230048 | 53 | 305 | 1.7 | 3.5 | 0.01 | 1.22 | 0.01 | 93 | 1013.8 |